Date String (YYYY-MM-DD hh:mm:ss) UTC,Instrument flags,absolute air pressure of the measurement (hPa),sample flow rate (lpm),inlet stack bypass flow (lpm),air temperature of the measurement (°C),ambient temperature measured by the external sensor (°C),aerosol sample conditioner tube jacket temperature (°C),OPC LED temperature (°C),internal box temperature (°C),relative humidity of the measurement (%),span deviation,mass concentration of particles derived from Lorenz-Mie calculation of OPC scattering (μg/m³),mass concentration of particles derived from Lorenz-Mie calculation of OPC scattering (μg/m³),mass concentration of particles derived from Lorenz-Mie calculation of OPC scattering (μg/m³)
DateTimeUTC,F1_M11,P_M11,Q1_M11,Q2_M11,T1_M11,T2_M11,T3_M11,T4_M11,T5_M11,U1_M11,ZSPAN_M11,X0_M11,X2_M11,X1_M11
2023-09-02 14:00:00,SystemResetWarning,0833.8,4.99,000.00,028.1,025.0,000.0,036.5,029.4,26.1,0000.0,0012.32,0004.22,0003.41
2023-09-02 14:01:00,SystemResetWarning,0833.7,5.00,000.00,028.1,025.4,000.0,036.5,029.4,26.5,0000.0,0011.72,0004.24,0003.40
2023-09-02 14:02:00,SystemResetWarning,0833.8,5.00,000.00,028.1,025.7,000.0,036.5,029.6,26.1,0000.0,0011.47,0004.22,0003.39
2023-09-02 14:03:00,SystemResetWarning,0833.8,4.99,000.00,028.1,026.1,000.0,036.5,029.6,24.7,0000.0,0011.14,0004.23,0003.39
2023-09-02 14:04:00,SystemResetWarning,0833.8,5.01,000.00,028.1,026.4,000.0,036.5,029.7,25.2,0000.0,0011.05,0004.22,0003.39
2023-09-02 14:05:00,SystemResetWarning,0833.8,5.01,000.00,028.2,026.6,000.0,036.5,029.8,27.9,0000.0,0010.61,0004.21,0003.38
2023-09-02 14:06:00,SystemResetWarning,0833.8,5.00,000.00,028.2,026.8,000.0,036.6,029.9,28.0,0000.0,0010.22,0004.18,0003.38
2023-09-02 14:07:00,SystemResetWarning,0833.8,5.00,000.00,028.3,027.0,000.0,036.6,029.9,29.8,0000.0,0009.58,0004.15,0003.38
2023-09-02 14:08:00,SystemResetWarning,0833.8,5.00,000.00,028.3,027.2,000.0,036.6,030.0,30.0,0000.0,0009.86,0004.13,0003.38
2023-09-02 14:09:00,SystemResetWarning,0833.8,4.99,000.00,028.3,026.9,000.0,036.6,030.0,31.2,0000.0,0010.34,0004.12,0003.39
2023-09-02 14:10:00,SystemResetWarning,0833.7,4.99,000.00,028.3,025.5,000.0,036.5,029.5,31.7,0000.0,0010.53,0004.10,0003.39
2023-09-02 14:11:00,SystemResetWarning,0833.7,5.01,000.00,028.2,024.7,000.0,036.5,029.3,32.3,0000.0,0010.72,0004.08,0003.39
2023-09-02 14:12:00,SystemResetWarning,0833.7,5.01,000.00,028.1,024.9,000.0,036.4,029.4,32.6,0000.0,0011.71,0004.05,0003.38
2023-09-02 14:13:00,SystemResetWarning,0833.8,5.01,000.00,028.1,025.2,000.0,036.4,029.4,33.0,0000.0,0011.63,0004.03,0003.39
2023-09-02 14:14:00,SystemResetWarning,0833.8,4.99,000.00,028.1,025.6,000.0,036.5,029.5,32.9,0000.0,0011.74,0004.03,0003.39
2023-09-02 14:15:00,SystemResetWarning,0833.8,5.00,000.00,028.1,025.9,000.0,036.5,029.6,32.5,0000.0,0011.84,0004.01,0003.38
2023-09-02 14:16:00,SystemResetWarning,0833.7,5.00,000.00,028.1,026.3,000.0,036.5,029.7,32.3,0000.0,0011.73,0003.98,0003.38
2023-09-02 14:17:00,SystemResetWarning,0833.8,5.00,000.00,028.1,026.5,000.0,036.5,029.8,32.2,0000.0,0011.56,0003.96,0003.38
2023-09-02 14:18:00,SystemResetWarning,0833.8,5.00,000.00,028.2,026.8,000.0,036.5,029.9,32.5,0000.0,0011.99,0004.00,0003.39
2023-09-02 14:19:00,SystemResetWarning,0833.8,5.00,000.00,028.2,026.9,000.0,036.6,029.9,31.7,0000.0,0011.80,0004.02,0003.38
2023-09-02 14:20:00,SystemResetWarning,0833.9,4.99,000.00,028.2,026.4,000.0,036.5,029.8,31.5,0000.0,0011.65,0004.02,0003.38
2023-09-02 14:21:00,SystemResetWarning,0833.8,5.00,000.00,028.1,025.1,000.0,036.4,029.3,31.2,0000.0,0011.57,0004.05,0003.39
2023-09-02 14:22:00,SystemResetWarning,0833.8,5.00,000.00,028.0,024.7,000.0,036.4,029.3,29.8,0000.0,0010.69,0004.08,0003.39
2023-09-02 14:23:00,SystemResetWarning,0833.9,5.01,000.00,028.0,025.0,000.0,036.3,029.3,31.6,0000.0,0009.50,0004.10,0003.40
2023-09-02 14:24:00,SystemResetWarning,0833.9,5.00,000.00,028.0,025.3,000.0,036.4,029.4,31.3,0000.0,0009.25,0004.10,0003.40
2023-09-02 14:25:00,SystemResetWarning,0833.9,5.00,000.00,028.0,025.7,000.0,036.4,029.5,31.5,0000.0,0009.44,0004.06,0003.39
2023-09-02 14:26:00,SystemResetWarning,0833.9,5.00,000.00,028.0,026.0,000.0,036.4,029.6,31.2,0000.0,0009.19,0004.05,0003.40
2023-09-02 14:27:00,SystemResetWarning,0833.9,5.00,000.00,028.0,026.3,000.0,036.4,029.7,30.7,0000.0,0009.37,0004.08,0003.40
2023-09-02 14:28:00,SystemResetWarning,0834.0,5.00,000.00,028.1,026.6,000.0,036.4,029.8,31.3,0000.0,0009.94,0004.09,0003.39
2023-09-02 14:29:00,SystemResetWarning,0833.9,5.00,000.00,028.1,026.8,000.0,036.5,029.8,31.8,0000.0,0009.70,0004.04,0003.39
2023-09-02 14:30:00,SystemResetWarning,0834.0,5.00,000.00,028.2,026.5,000.0,036.4,029.7,31.0,0000.0,0009.75,0004.06,0003.40
2023-09-02 14:31:00,SystemResetWarning,0833.9,4.99,000.00,028.1,025.1,000.0,036.4,029.3,31.6,0000.0,0009.54,0004.08,0003.40
2023-09-02 14:32:00,SystemResetWarning,0833.9,5.01,000.00,028.0,024.6,000.0,036.3,029.2,32.4,0000.0,0009.76,0004.09,0003.40
2023-09-02 14:33:00,SystemResetWarning,0833.9,5.01,000.00,027.9,024.9,000.0,036.3,029.3,33.1,0000.0,0010.37,0004.10,0003.40
2023-09-02 14:34:00,SystemResetWarning,0833.9,5.00,000.00,027.9,025.2,000.0,036.3,029.3,32.9,0000.0,0010.47,0004.11,0003.40
2023-09-02 14:35:00,SystemResetWarning,0833.9,4.99,000.00,027.9,025.6,000.0,036.3,029.4,33.4,0000.0,0010.49,0004.14,0003.40
2023-09-02 14:36:00,SystemResetWarning,0833.9,5.00,000.00,027.9,025.9,000.0,036.3,029.5,33.3,0000.0,0010.53,0004.14,0003.40
2023-09-02 14:37:00,SystemResetWarning,0833.9,5.01,000.00,028.0,026.3,000.0,036.3,029.6,33.6,0000.0,0010.82,0004.19,0003.39
2023-09-02 14:38:00,SystemResetWarning,0834.0,5.00,000.00,028.0,026.5,000.0,036.4,029.7,32.8,0000.0,0010.71,0004.18,0003.39
2023-09-02 14:39:00,SystemResetWarning,0833.9,4.99,000.00,028.1,026.8,000.0,036.4,029.8,32.1,0000.0,0010.33,0004.20,0003.40
2023-09-02 14:40:00,SystemResetWarning,0834.0,4.99,000.00,028.1,027.0,000.0,036.4,029.9,31.5,0000.0,0010.23,0004.21,0003.39
2023-09-02 14:41:00,SystemResetWarning,0833.9,5.00,000.00,028.2,026.8,000.0,036.4,029.9,32.5,0000.0,0009.94,0004.14,0003.38
2023-09-02 14:42:00,SystemResetWarning,0833.9,5.00,000.00,028.1,025.5,000.0,036.4,029.4,31.9,0000.0,0009.72,0004.11,0003.37
2023-09-02 14:43:00,SystemResetWarning,0833.9,5.00,000.00,028.0,024.8,000.0,036.3,029.2,31.3,0000.0,0010.07,0004.11,0003.37
2023-09-02 14:44:00,SystemResetWarning,0833.9,5.01,000.00,027.9,024.9,000.0,036.2,029.3,31.2,0000.0,0009.66,0004.11,0003.37
2023-09-02 14:45:00,SystemResetWarning,0833.9,5.00,000.00,027.9,025.2,000.0,036.3,029.3,31.8,0000.0,0009.60,0004.14,0003.38
2023-09-02 14:46:00,SystemResetWarning,0834.0,4.99,000.00,027.9,025.6,000.0,036.3,029.4,31.2,0000.0,0009.61,0004.15,0003.39
2023-09-02 14:47:00,SystemResetWarning,0834.0,5.00,000.00,027.9,025.9,000.0,036.3,029.5,29.5,0000.0,0009.66,0004.23,0003.40
2023-09-02 14:48:00,SystemResetWarning,0833.9,5.01,000.00,028.0,026.3,000.0,036.3,029.6,30.1,0000.0,0009.96,0004.21,0003.41
2023-09-02 14:49:00,SystemResetWarning,0834.0,5.01,000.00,028.0,026.5,000.0,036.4,029.7,29.6,0000.0,0010.38,0004.20,0003.42
2023-09-02 14:50:00,SystemResetWarning,0834.0,5.00,000.00,028.1,026.8,000.0,036.4,029.8,28.3,0000.0,0010.82,0004.18,0003.43
2023-09-02 14:51:00,SystemResetWarning,0834.0,4.98,000.00,028.1,026.1,000.0,036.3,029.6,29.6,0000.0,0011.11,0004.20,0003.44
2023-09-02 14:52:00,SystemResetWarning,0834.0,5.01,000.00,028.0,024.9,000.0,036.3,029.2,30.8,0000.0,0011.24,0004.28,0003.45
2023-09-02 14:53:00,SystemResetWarning,0834.0,5.00,000.00,027.9,024.6,000.0,036.2,029.1,31.8,0000.0,0011.21,0004.32,0003.46
2023-09-02 14:54:00,SystemResetWarning,0834.0,5.00,000.00,027.8,024.9,000.0,036.2,029.1,32.8,0000.0,0010.73,0004.33,0003.47
2023-09-02 14:55:00,SystemResetWarning,0834.1,5.02,000.00,027.8,025.2,000.0,036.2,029.2,33.1,0000.0,0011.02,0004.36,0003.49
2023-09-02 14:56:00,SystemResetWarning,0834.1,5.00,000.00,027.8,025.6,000.0,036.2,029.4,33.5,0000.0,0011.17,0004.34,0003.48
2023-09-02 14:57:00,SystemResetWarning,0834.1,5.00,000.00,027.9,026.0,000.0,036.3,029.5,33.5,0000.0,0011.37,0004.32,0003.48
2023-09-02 14:58:00,SystemResetWarning,0834.1,5.00,000.00,027.9,026.3,000.0,036.3,029.6,33.5,0000.0,0011.25,0004.27,0003.48
2023-09-02 14:59:00,SystemResetWarning,0834.1,5.00,000.00,028.0,026.6,000.0,036.3,029.7,33.2,0000.0,0010.74,0004.25,0003.47
